FENGYUN 1C DEB, 30500

Orbit data source: Space-Track

FENGYUN 1C DEB, 30500 is space debris in SSO originally from a launch on Mon, 10 May 1999 UTC launched from the Taiyaun Space Center, China (TSC). Fengyun 1C debris stems from the Chinese weather satellite Fengyun-1C, which was intentionally destroyed by a Chinese anti-satellite missile in 2007. This event dramatically increased the amount of space debris, with thousands of trackable fragments posing hazards to satellites and human spaceflight. The Fengyun 1C debris cloud has become a focal point in discussions about space sustainability and the need for international regulations to prevent the creation of new debris.

Loading next visibility...
Identifier
30500, 1999-025AHN
Orbit
SSO
Country
Flag of CNCN / PRC
Related business
Manufacturer
Unknown
Mission
Spacecraft
Bus & Motor
Unknown
Mass
Unknown
Launch date (UTC)
1999-05-10 (27 years ago)
Launch vehicle
Unknown
Launch site
Taiyaun Space Center, China (TSC)
Object type
Payload
Rocket body
Debris
Shape & HBR
Unknown shape, 0.1 m
Radar Cross Section
Medium (>0.1 m² and <1 m²)

Expand to show TLE details & history
Last TLE update: 5 hours ago

TLE from 5 hours ago
0 FENGYUN 1C DEB
1 30500U 99025AHN 26236.58222741  .00003736  00000-0  14999-2 0  9996
2 30500  99.0725 342.2327 0063487 101.4769  24.9172 14.27718430  3118
Epoch: 2026-08-24T13:58Z
TLE epoch observation values (Epoch: 2026-08-24T13:58:24.448Z)
Latitude
52.44825°
Longitude
-8.30764°
Altitude
766.566 km
Speed
7.498 km/s
True Right ascension
11h 36m 37s
True Declination
52° 16' 56"
Sunlit
Object was in daylight at epoch
Visualization orbit readout
Latitude
Unknown
Longitude
Unknown
Altitude
Unknown
Speed
Unknown
Apparent Right ascension
Unknown
Apparent Declination
Unknown
Sunlit
N/A
Visualization observer readout
Local Sidereal Time
09:58:13
Azimuth
Unknown
Elevation
Unknown
Doppler factor
Unknown
Orbital elements
Apogee altitude
842.083 km
Perigee altitude
750.983 km
Semi-major axis
7,174.67 km
Eccentricity
0.00635
Inclination
99.0725°
RAAN
342.2327°
Arg. of periapsis
101.4769°
True anomaly
25.22592°
Mean anomaly
24.9172°
Eccentric anomaly
25.07134°
Mean motion
3.57141 °/min
Orbital period
100.8 mins
BSTAR
0.0014999
Loading maneuver chart data...
Computing Atmospheric mass density...

Documentation

Showing up to 5 results
|